| time (UTC) | temp F | wind direction | speed MPH | gust MPH | rain 1hr in | rain 24hr in | rain mn in | humidity % | barometer mb |
| 20260903115307 | 58 | 262 | 5.0 | 9.0 | 0.00 | 0.16 | 0.16 | 4 | 1019.7 |
| 20260903114807 | 58 | 266 | 6.0 | 12.0 | 0.00 | 0.16 | 0.16 | 4 | 1019.7 |
| 20260903113804 | 58 | 270 | 5.0 | 10.0 | 0.00 | 0.16 | 0.16 | 4 | 1019.7 |
| 20260903113307 | 58 | 270 | 5.0 | 10.0 | 0.00 | 0.16 | 0.16 | 4 | 1019.8 |
| 20260903111805 | 58 | 277 | 2.0 | 5.0 | 0.00 | 0.16 | 0.16 | 4 | 1019.9 |
| 20260903111305 | 58 | 262 | 3.0 | 9.0 | 0.00 | 0.16 | 0.16 | 4 | 1020.0 |
| 20260903110305 | 58 | 258 | 5.0 | 12.0 | 0.00 | 0.16 | 0.16 | 4 | 1020.0 |
| 20260903105804 | 58 | 255 | 6.0 | 10.0 | 0.00 | 0.16 | 0.16 | 4 | 1020.0 |
| 20260903104305 | 59 | 280 | 5.0 | 10.0 | 0.00 | 0.16 | 0.16 | 4 | 1020.1 |
| 20260903103305 | 59 | 275 | 5.0 | 9.0 | 0.00 | 0.16 | 0.16 | 4 | 1020.1 |
| 20260903102806 | 59 | 256 | 5.0 | 10.0 | 0.00 | 0.16 | 0.16 | 4 | 1020.1 |
| 20260903102306 | 59 | 244 | 5.0 | 12.0 | 0.00 | 0.16 | 0.16 | 4 | 1020.2 |
| 20260903101804 | 59 | 249 | 5.0 | 10.0 | 0.00 | 0.16 | 0.16 | 4 | 1020.3 |
| 20260903101304 | 59 | 260 | 5.0 | 10.0 | 0.00 | 0.16 | 0.16 | 4 | 1020.3 |
| 20260903095805 | 59 | 256 | 5.0 | 10.0 | 0.01 | 0.16 | 0.16 | 4 | 1020.4 |
| 20260903094807 | 59 | 256 | 5.0 | 13.0 | 0.01 | 0.16 | 0.16 | 4 | 1020.4 |
| 20260903093806 | 59 | 265 | 4.0 | 9.0 | 0.02 | 0.16 | 0.16 | 4 | 1020.3 |
| 20260903093305 | 59 | 261 | 5.0 | 8.0 | 0.02 | 0.16 | 0.16 | 4 | 1020.3 |
| 20260903091807 | 59 | 249 | 3.0 | 9.0 | 0.06 | 0.17 | 0.16 | 4 | 1020.1 |
| 20260903091304 | 58 | 252 | 5.0 | 10.0 | 0.06 | 0.17 | 0.16 | 4 | 1020.1 |
| 20260903090804 | 58 | 262 | 3.0 | 8.0 | 0.06 | 0.17 | 0.16 | 4 | 1020.1 |
| 20260903090307 | 58 | 244 | 3.0 | 7.0 | 0.06 | 0.16 | 0.15 | 4 | 1020.1 |
| 20260903084805 | 58 | 253 | 5.0 | 8.0 | 0.06 | 0.16 | 0.15 | 4 | 1020.0 |
| 20260903081805 | 58 | 274 | 2.0 | 8.0 | 0.02 | 0.10 | 0.09 | 4 | 1020.1 |
| 20260903080304 | 58 | 278 | 3.0 | 7.0 | 0.01 | 0.09 | 0.09 | 4 | 1019.9 |
| 20260903075306 | 58 | 270 | 3.0 | 6.0 | 0.01 | 0.09 | 0.09 | 4 | 1020.0 |
| 20260903074804 | 58 | 253 | 4.0 | 8.0 | 0.01 | 0.09 | 0.09 | 4 | 1020.0 |
| 20260903072805 | 59 | 278 | 6.0 | 12.0 | 0.02 | 0.09 | 0.08 | 4 | 1019.9 |
| 20260903071807 | 59 | 276 | 4.0 | 12.0 | 0.06 | 0.09 | 0.08 | 4 | 1019.8 |
| 20260903071305 | 59 | 268 | 4.0 | 9.0 | 0.06 | 0.09 | 0.08 | 4 | 1019.8 |
| 20260903070805 | 59 | 259 | 5.0 | 10.0 | 0.06 | 0.09 | 0.08 | 4 | 1019.8 |
| 20260903065805 | 59 | 267 | 5.0 | 14.0 | 0.06 | 0.09 | 0.08 | 4 | 1019.7 |
| 20260903065306 | 59 | 271 | 2.0 | 6.0 | 0.06 | 0.09 | 0.08 | 4 | 1019.7 |
| 20260903064805 | 59 | 252 | 3.0 | 7.0 | 0.06 | 0.09 | 0.08 | 4 | 1019.7 |
| 20260903064305 | 59 | 242 | 2.0 | 10.0 | 0.06 | 0.09 | 0.08 | 4 | 1019.8 |
| 20260903063804 | 60 | 230 | 6.0 | 12.0 | 0.04 | 0.06 | 0.06 | 4 | 1019.6 |
| 20260903063306 | 60 | 268 | 3.0 | 5.0 | 0.04 | 0.06 | 0.06 | 4 | 1019.5 |
| 20260903062804 | 60 | 273 | 4.0 | 7.0 | 0.04 | 0.06 | 0.06 | 4 | 1019.5 |
| 20260903062306 | 60 | 279 | 4.0 | 8.0 | 0.02 | 0.05 | 0.04 | 4 | 1019.6 |
| 20260903061806 | 60 | 278 | 6.0 | 12.0 | 0.00 | 0.02 | 0.02 | 4 | 1019.6 |
| 20260903060804 | 61 | 267 | 5.0 | 12.0 | 0.00 | 0.02 | 0.02 | 4 | 1019.5 |
| 20260903060305 | 61 | 264 | 6.0 | 12.0 | 0.00 | 0.02 | 0.02 | 4 | 1019.5 |
| 20260903055804 | 60 | 243 | 6.0 | 12.0 | 0.00 | 0.02 | 0.02 | 4 | 1019.5 |
| 20260903055307 | 60 | 260 | 5.0 | 17.0 | 0.00 | 0.02 | 0.02 | 4 | 1019.4 |
| 20260903054804 | 60 | 267 | 6.0 | 10.0 | 0.00 | 0.02 | 0.02 | 4 | 1019.4 |
| 20260903054307 | 60 | 282 | 6.0 | 10.0 | 0.00 | 0.02 | 0.02 | 4 | 1019.4 |
| 20260903052307 | 59 | 267 | 6.0 | 13.0 | 0.00 | 0.02 | 0.02 | 16 | 1019.5 |
| 20260903050304 | 59 | 272 | 5.0 | 13.0 | 0.00 | 0.02 | 0.02 | 32 | 1019.5 |
| 20260903045805 | 59 | 257 | 7.0 | 13.0 | 0.00 | 0.02 | 0.02 | 35 | 1019.5 |
| 20260903044305 | 59 | 248 | 10.0 | 15.0 | 0.00 | 0.02 | 0.02 | 45 | 1019.5 |
| 20260903042306 | 60 | 270 | 5.0 | 12.0 | 0.00 | 0.02 | 0.02 | 57 | 1019.6 |
| 20260903041806 | 60 | 255 | 5.0 | 12.0 | 0.00 | 0.02 | 0.02 | 60 | 1019.6 |
| 20260903041304 | 61 | 263 | 6.0 | 14.0 | 0.00 | 0.02 | 0.02 | 62 | 1019.6 |
| 20260903035806 | 61 | 261 | 7.0 | 16.0 | 0.00 | 0.02 | 0.02 | 64 | 1019.6 |
| 20260903033805 | 62 | 268 | 9.0 | 16.0 | 0.00 | 0.02 | 0.02 | 64 | 1019.8 |
| 20260903033305 | 62 | 263 | 8.0 | 18.0 | 0.00 | 0.02 | 0.02 | 64 | 1019.8 |
| 20260903031804 | 63 | 258 | 6.0 | 12.0 | 0.00 | 0.02 | 0.02 | 64 | 1019.9 |
| 20260903031305 | 63 | 259 | 8.0 | 13.0 | 0.00 | 0.02 | 0.02 | 63 | 1019.9 |
| 20260903030804 | 63 | 244 | 8.0 | 17.0 | 0.00 | 0.02 | 0.02 | 63 | 1020.0 |
| 20260903025804 | 63 | 271 | 7.0 | 16.0 | 0.00 | 0.02 | 0.02 | 63 | 1019.9 |
| 20260903024805 | 63 | 255 | 7.0 | 17.0 | 0.00 | 0.02 | 0.02 | 64 | 1020.0 |
| 20260903024305 | 63 | 274 | 8.0 | 17.0 | 0.00 | 0.02 | 0.02 | 64 | 1020.0 |
| 20260903023307 | 63 | 257 | 8.0 | 15.0 | 0.00 | 0.02 | 0.02 | 64 | 1020.0 |
| 20260903022804 | 63 | 240 | 6.0 | 12.0 | 0.00 | 0.02 | 0.02 | 64 | 1020.0 |
| 20260903021805 | 63 | 246 | 5.0 | 10.0 | 0.00 | 0.02 | 0.02 | 64 | 1020.1 |
| 20260903020805 | 63 | 256 | 7.0 | 15.0 | 0.00 | 0.02 | 0.02 | 64 | 1020.3 |
| 20260903020306 | 63 | 239 | 9.0 | 15.0 | 0.00 | 0.02 | 0.02 | 64 | 1020.3 |
| 20260903015306 | 64 | 250 | 9.0 | 15.0 | 0.00 | 0.02 | 0.02 | 63 | 1020.4 |
| 20260903014804 | 64 | 247 | 8.0 | 15.0 | 0.00 | 0.02 | 0.02 | 64 | 1020.5 |
| 20260903013805 | 64 | 247 | 7.0 | 16.0 | 0.00 | 0.02 | 0.02 | 63 | 1020.6 |
| 20260903012805 | 64 | 243 | 6.0 | 13.0 | 0.00 | 0.02 | 0.02 | 62 | 1020.5 |
| 20260903011805 | 64 | 248 | 7.0 | 13.0 | 0.00 | 0.02 | 0.02 | 62 | 1020.7 |
| 20260903011307 | 64 | 253 | 7.0 | 13.0 | 0.00 | 0.02 | 0.02 | 62 | 1020.8 |
| 20260903010804 | 63 | 246 | 5.0 | 12.0 | 0.00 | 0.02 | 0.02 | 64 | 1020.8 |
| 20260903010305 | 64 | 232 | 8.0 | 14.0 | 0.00 | 0.02 | 0.02 | 61 | 1020.8 |
| 20260903005805 | 64 | 250 | 7.0 | 16.0 | 0.00 | 0.02 | 0.02 | 63 | 1020.9 |
| 20260903005306 | 63 | 254 | 6.0 | 12.0 | 0.00 | 0.02 | 0.02 | 63 | 1021.0 |
| 20260903004305 | 63 | 240 | 7.0 | 14.0 | 0.00 | 0.02 | 0.02 | 63 | 1021.1 |
| 20260903003304 | 63 | 235 | 6.0 | 12.0 | 0.00 | 0.02 | 0.02 | 64 | 1021.3 |
| 20260903002805 | 63 | 230 | 7.0 | 15.0 | 0.00 | 0.02 | 0.02 | 64 | 1021.4 |
| 20260903002306 | 64 | 240 | 9.0 | 16.0 | 0.00 | 0.02 | 0.02 | 63 | 1021.4 |
| 20260903001805 | 64 | 245 | 9.0 | 15.0 | 0.00 | 0.02 | 0.02 | 63 | 1021.5 |
| 20260903001305 | 65 | 248 | 8.0 | 14.0 | 0.00 | 0.02 | 0.02 | 63 | 1021.5 |
| 20260903000305 | 63 | 263 | 7.0 | 14.0 | 0.00 | 0.02 | 0.02 | 63 | 1021.5 |
| 20260902234804 | 63 | 234 | 6.0 | 16.0 | 0.00 | 0.02 | 0.02 | 64 | 1021.7 |
| 20260902234306 | 63 | 251 | 7.0 | 18.0 | 0.00 | 0.02 | 0.02 | 63 | 1021.7 |
| 20260902232306 | 62 | 241 | 7.0 | 18.0 | 0.00 | 0.02 | 0.02 | 63 | 1021.8 |
| 20260902231805 | 62 | 240 | 6.0 | 12.0 | 0.00 | 0.02 | 0.02 | 62 | 1021.8 |
| 20260902230305 | 60 | 252 | 8.0 | 16.0 | 0.00 | 0.02 | 0.02 | 47 | 1021.8 |
| 20260902225805 | 59 | 278 | 5.0 | 13.0 | 0.00 | 0.02 | 0.02 | 43 | 1021.9 |
| 20260902225306 | 59 | 250 | 7.0 | 12.0 | 0.00 | 0.02 | 0.02 | 48 | 1021.9 |
| 20260902224804 | 59 | 267 | 7.0 | 12.0 | 0.00 | 0.02 | 0.02 | 48 | 1021.9 |
| 20260902223305 | 59 | 234 | 7.0 | 13.0 | 0.00 | 0.02 | 0.02 | 33 | 1021.9 |
| 20260902222805 | 60 | 239 | 5.0 | 12.0 | 0.00 | 0.02 | 0.02 | 23 | 1021.9 |
| 20260902221804 | 60 | 259 | 5.0 | 12.0 | 0.00 | 0.02 | 0.02 | 4 | 1022.1 |
| 20260902220805 | 61 | 233 | 4.0 | 10.0 | 0.00 | 0.02 | 0.02 | 4 | 1022.1 |
| 20260902215805 | 60 | 240 | 5.0 | 15.0 | 0.00 | 0.02 | 0.02 | 4 | 1022.1 |
| 20260902215306 | 60 | 237 | 3.0 | 12.0 | 0.00 | 0.02 | 0.02 | 4 | 1022.1 |
| 20260902214305 | 59 | 282 | 3.0 | 7.0 | 0.00 | 0.02 | 0.02 | 4 | 1022.2 |
| 20260902213305 | 58 | 256 | 2.0 | 7.0 | 0.00 | 0.02 | 0.02 | 4 | 1022.3 |
| 20260902211305 | 56 | 248 | 4.0 | 7.0 | 0.00 | 0.02 | 0.02 | 4 | 1022.3 |
| 20260902210305 | 56 | 299 | 1.0 | 5.0 | 0.00 | 0.02 | 0.02 | 4 | 1022.3 |
| 20260902205805 | 56 | 287 | 1.0 | 3.0 | 0.00 | 0.02 | 0.02 | 4 | 1022.3 |
| 20260902204805 | 55 | 284 | 3.0 | 5.0 | 0.00 | 0.02 | 0.02 | 4 | 1022.4 |
| 20260902203805 | 55 | 300 | 1.0 | 2.0 | 0.00 | 0.02 | 0.02 | 4 | 1022.4 |
| 20260902203307 | 54 | 300 | 1.0 | 3.0 | 0.00 | 0.02 | 0.02 | 4 | 1022.5 |
| 20260902202804 | 54 | 305 | 1.0 | 3.0 | 0.00 | 0.02 | 0.02 | 4 | 1022.6 |
| 20260902200804 | 53 | 272 | 1.0 | 3.0 | 0.00 | 0.02 | 0.02 | 4 | 1022.7 |
| 20260902200305 | 53 | 276 | 2.0 | 3.0 | 0.00 | 0.02 | 0.02 | 4 | 1022.6 |
| 20260902195805 | 53 | 267 | 2.0 | 3.0 | 0.00 | 0.02 | 0.02 | 4 | 1022.4 |
| 20260902195306 | 52 | 270 | 0.0 | 0.0 | 0.00 | 0.02 | 0.02 | 4 | 1022.3 |
| 20260902194807 | 52 | 270 | 0.0 | 0.0 | 0.00 | 0.02 | 0.02 | 4 | 1022.2 |
| 20260902194306 | 52 | 271 | 0.0 | 0.0 | 0.00 | 0.02 | 0.02 | 4 | 1022.2 |
| 20260902192804 | 52 | 268 | 0.0 | 0.0 | 0.00 | 0.02 | 0.02 | 4 | 1022.1 |
| 20260902192307 | 52 | 268 | 0.0 | 0.0 | 0.00 | 0.02 | 0.02 | 4 | 1022.1 |
| 20260902191804 | 52 | 268 | 0.0 | 1.0 | 0.00 | 0.02 | 0.02 | 4 | 1022.1 |
| 20260902191305 | 51 | 266 | 0.0 | 1.0 | 0.00 | 0.02 | 0.02 | 4 | 1022.2 |
| 20260902190805 | 52 | 266 | 0.0 | 0.0 | 0.00 | 0.02 | 0.02 | 4 | 1022.2 |
| 20260902185307 | 52 | 264 | 1.0 | 2.0 | 0.00 | 0.02 | 0.02 | 4 | 1022.2 |
| 20260902184808 | 52 | 270 | 1.0 | 3.0 | 0.00 | 0.02 | 0.02 | 4 | 1022.1 |
| 20260902183304 | 52 | 274 | 2.0 | 3.0 | 0.00 | 0.02 | 0.02 | 4 | 1021.9 |
| 20260902182306 | 52 | 267 | 2.0 | 3.0 | 0.00 | 0.02 | 0.02 | 4 | 1021.9 |
| 20260902171304 | 54 | 223 | 2.0 | 6.0 | 0.01 | 0.02 | 0.02 | 4 | 1021.7 |
| 20260902164805 | 53 | 289 | 0.0 | 1.0 | 0.01 | 0.02 | 0.01 | 4 | 1021.4 |
| 20260902164307 | 53 | 289 | 0.0 | 1.0 | 0.01 | 0.02 | 0.01 | 4 | 1021.4 |
| 20260902160806 | 53 | 278 | 0.0 | 1.0 | 0.01 | 0.02 | 0.01 | 4 | 1021.6 |
| 20260902160304 | 53 | 277 | 0.0 | 0.0 | 0.01 | 0.02 | 0.01 | 4 | 1021.6 |
| 20260902154305 | 54 | 277 | 0.0 | 1.0 | 0.00 | 0.01 | 0.00 | 4 | 1021.7 |
| 20260902153805 | 54 | 277 | 1.0 | 3.0 | 0.00 | 0.01 | 0.00 | 4 | 1021.8 |
| 20260902153304 | 54 | 254 | 2.0 | 3.0 | 0.00 | 0.01 | 0.00 | 4 | 1021.9 |
| 20260902152308 | 54 | 250 | 3.0 | 5.0 | 0.00 | 0.01 | 0.00 | 4 | 1022.0 |
| 20260902151805 | 54 | 251 | 2.0 | 3.0 | 0.00 | 0.01 | 0.00 | 4 | 1022.0 |
| 20260902150804 | 54 | 253 | 1.0 | 3.0 | 0.00 | 0.01 | 0.00 | 4 | 1022.0 |
| 20260902150305 | 54 | 251 | 1.0 | 2.0 | 0.00 | 0.01 | 0.00 | 4 | 1022.0 |
| 20260902145306 | 54 | 269 | 1.0 | 1.0 | 0.00 | 0.01 | 0.00 | 4 | 1022.0 |
| 20260902141306 | 54 | 274 | 1.0 | 3.0 | 0.00 | 0.01 | 0.00 | 4 | 1022.3 |
| 20260902140805 | 54 | 279 | 1.0 | 1.0 | 0.00 | 0.01 | 0.00 | 4 | 1022.2 |
| 20260902133805 | 54 | 265 | 0.0 | 1.0 | 0.00 | 0.01 | 0.00 | 4 | 1022.2 |
| 20260902133306 | 55 | 266 | 0.0 | 1.0 | 0.00 | 0.01 | 0.00 | 4 | 1022.2 |
| 20260902130804 | 55 | 268 | 1.0 | 3.0 | 0.00 | 0.01 | 0.00 | 4 | 1021.9 |
| 20260902125306 | 55 | 255 | 1.0 | 2.0 | 0.00 | 0.01 | 0.00 | 4 | 1021.8 |
| 20260902124305 | 55 | 255 | 1.0 | 2.0 | 0.00 | 0.01 | 0.00 | 4 | 1021.8 |
| 20260902122804 | 55 | 245 | 2.0 | 5.0 | 0.00 | 0.01 | 0.00 | 4 | 1021.7 |